C/2010 F3 ( Scotti )

Japanese version
Home page
Updated on September 3, 2011

---------------------------------------------------------------------

* Profile

Discovery Date March 20, 2010
Magnitude 19.8 mag
Discoverer J. V. Scotti (Spacewatch)

* Pictures

* Orbital Elements

Epoch 2010 July 23.0 TT = JDT 2455400.5
T 2010 Aug. 4.52706 TT                                  MPC
q   5.4467019            (2000.0)            P               Q
z  +0.0159247      Peri.   31.25579     -0.98792912     +0.15174737
 +/-0.0000000      Node   157.40982     -0.15351288     -0.93218023
e   0.9132628      Incl.    4.64761     -0.02073305     -0.32865295
From 119 observations 2010 Mar. 20-2011 May 24, mean residual 0".4.

* Magnitudes Graph

        m1 = 9.0 + 5 log d + 10.0 log r

---------------------------------------------------------------------

The orbital elements are published on M.P.E.C. 2011-L11.
The magnitudes graphs are made with Comet for Windows.

---------------------------------------------------------------------

Copyright(C) Seiichi Yoshida (comet@aerith.net). All rights reserved.